Wind_Speed
15 14 14 14 14 14 14 15 14 14 15 15 15 17 15 15 15 16 20 23 24 24 23 24 22 22 21 19 15 13 13 13 11 6 6 8 8 8 8 7 7 9 9
15 14 14 14 14 13 14 14 14 14 15 14 16 15 15 14 13 12 11 13 18 22 23 22 21 22 21 21 18 13 13 10 7 6 6 3 6 8 8 9 8 8 10
16 15 15 15 15 15 15 15 15 16 17 16 16 14 13 11 9 9 8 6 5 11 16 18 20 20 20 19 19 17 12 11 10 10 9 4 3 5 8 8 10 10 9
16 15 15 16 15 15 15 16 16 16 17 16 17 14 13 10 8 5 4 3 1 2 6 7 14 17 18 18 17 16 16 16 15 15 14 10 7 5 3 5 8 10 11
15 15 15 16 14 15 16 16 17 16 17 16 17 16 14 12 10 7 7 4 2 2 2 7 11 15 15 14 16 15 15 15 16 15 16 17 17 13 9 7 5 4 5
15 16 16 16 15 15 16 16 18 18 17 17 17 16 13 12 12 10 9 8 7 6 5 3 4 6 13 16 15 13 13 14 17 17 17 17 17 17 17 16 15 13 11
15 16 16 16 15 16 16 15 18 17 18 18 13 15 14 11 10 9 8 8 9 9 7 7 6 5 6 10 15 14 12 9 12 13 13 14 15 15 15 15 16 16 16
15 15 15 16 15 16 16 14 13 16 13 10 6 7 2 4 7 7 8 7 7 6 7 8 7 6 7 6 9 13 13 10 8 8 11 11 12 12 12 12 13 15 15
15 16 16 16 15 15 16 14 12 12 11 10 7 4 2 2 4 3 4 3 4 4 6 6 6 5 5 4 4 7 10 10 8 7 7 9 9 10 10 10 11 11 13
16 16 16 15 15 15 15 14 12 14 14 15 11 10 9 6 3 2 2 2 3 3 3 4 5 5 4 3 5 7 7 8 7 7 7 7 7 7 6 7 9 9 10
16 15 15 15 14 13 14 14 13 14 12 12 11 9 11 11 8 3 2 3 3 2 3 4 2 3 3 2 4 6 7 8 8 7 7 6 5 4 4 7 9 9 9
17 16 15 14 14 13 13 13 13 12 12 12 11 11 8 4 4 5 4 3 3 3 0 2 3 2 3 2 3 6 7 7 8 7 7 6 5 4 6 8 8 8 7
18 17 15 15 14 13 12 11 12 12 11 11 10 11 9 9 7 8 6 3 2 2 2 2 3 1 1 1 4 8 7 7 7 7 7 6 6 6 7 7 7 7 7
19 16 15 14 13 12 11 10 10 11 10 9 9 8 8 7 6 6 5 4 1 1 3 2 5 3 1 3 6 7 10 9 8 7 7 7 7 7 7 7 7 8 8
18 16 14 12 11 11 10 9 9 8 7 7 7 7 6 5 4 4 4 3 3 2 0 3 4 6 4 2 4 9 11 12 11 10 11 9 8 8 7 8 8 8 9
15 14 11 9 9 9 8 8 7 6 5 5 5 4 5 4 3 2 2 3 3 3 1 1 3 8 7 10 10 11 10 10 11 12 12 12 12 12 11 11 10 10 10
13 11 9 9 8 7 7 7 6 5 5 4 3 2 4 3 3 2 2 3 4 5 6 7 11 12 11 12 14 13 12 12 12 11 12 12 13 13 13 14 15 14 13
11 11 12 10 9 8 7 6 6 4 3 3 3 3 3 3 4 4 6 6 7 7 9 12 15 15 14 14 17 18 14 12 12 12 13 13 14 14 14 14 15 16 16
10 11 11 9 8 8 7 5 4 4 4 4 5 6 6 6 6 5 6 7 8 9 11 13 15 14 17 17 17 14 13 12 13 14 13 12 10 11 13 14 15 17 17
13 12 10 9 8 7 6 6 5 5 6 7 7 8 8 9 9 8 8 9 9 10 11 13 15 16 17 18 16 17 17 16 16 13 12 13 14 14 12 14 15 16 16
13 12 11 10 9 9 8 8 8 9 9 10 10 11 10 11 10 10 11 11 11 12 14 15 16 17 17 17 15 17 17 20 21 21 20 21 18 15 17 16 20 21 16
13 13 11 11 11 12 9 9 9 9 11 12 13 14 13 13 14 14 16 16 17 17 19 21 19 17 23 22 20 14 16 15 8 13 12 15 14 18 23 28 27 20 19
16 15 14 14 15 14 11 11 11 13 14 15 16 16 16 16 14 16 15 16 16 16 17 20 25 21 19 22 18 20 22 21 20 23 21 22 25 28 29 27 23 20 19
13 12 12 12 13 14 12 12 12 14 17 18 18 18 18 19 18 18 18 19 20 20 19 19 20 20 21 21 22 25 26 26 25 25 23 18 26 26 28 26 20 19 21
14 13 12 13 14 14 12 12 13 15 18 19 19 20 19 20 20 18 20 21 22 21 21 20 20 20 20 22 23 23 19 18 11 12 15 19 19 22 24 26 26 26 22
11 10 10 11 12 14 12 12 13 17 19 20 20 20 18 20 20 19 21 24 24 25 24 24 24 22 21 21 21 21 24 23 19 15 19 21 22 21 14 20 23 25 20
Wind_Direction
147 145 138 140 129 127 119 115 108 108 114 116 115 125 131 127 126 121 114 100 74 69 66 66 75 76 82 89 96 99 97 95 98 124 169 176 182 189 187 172 162 164 161
148 148 142 134 133 132 127 119 111 107 103 110 116 117 119 120 128 132 130 114 92 74 66 64 67 69 70 74 76 99 95 84 85 81 72 146 197 198 196 194 183 169 172
149 147 136 130 126 124 124 125 119 114 113 112 108 117 126 123 129 132 139 140 120 73 72 62 63 64 65 65 62 66 92 89 90 82 78 82 118 186 204 202 202 196 186
156 146 138 130 128 128 124 125 123 122 115 109 108 103 104 112 119 124 132 150 200 53 56 58 58 57 59 59 59 59 64 83 88 88 83 79 88 87 130 196 214 211 204
153 148 139 131 130 129 130 125 123 121 117 116 107 102 94 93 83 81 86 104 104 78 69 49 65 57 56 51 59 60 58 66 67 73 71 85 85 90 93 111 117 153 154
152 147 138 135 136 132 122 130 122 120 116 119 114 106 103 97 93 85 77 79 77 76 76 60 55 62 57 57 63 62 64 66 65 63 57 58 72 76 77 88 95 107 99
142 143 141 135 135 132 123 128 134 131 116 126 111 100 94 95 93 90 79 74 72 67 66 66 65 65 61 70 59 64 68 73 60 53 48 51 54 64 67 69 74 72 67
138 137 135 132 131 131 131 130 134 134 116 147 132 129 120 97 102 102 99 88 83 65 54 54 61 60 68 84 71 60 62 61 52 42 42 43 50 50 50 53 57 50 49
142 137 134 131 128 128 129 122 134 140 128 102 113 142 119 158 131 108 108 108 93 63 62 60 61 67 62 57 49 66 61 59 56 52 38 34 35 38 40 41 40 35 30
144 142 140 137 132 130 126 124 120 130 136 123 100 80 84 116 144 112 136 111 123 76 68 56 57 69 50 49 68 47 46 46 39 36 30 33 32 26 21 15 7 6 9
147 143 142 141 134 131 124 125 125 122 119 116 123 125 103 92 84 127 150 140 142 130 68 32 38 91 60 39 21 29 26 29 26 19 17 16 14 10 358 347 341 343 342
144 141 139 135 130 127 121 118 116 116 112 109 107 99 114 122 94 99 103 98 125 125 148 358 95 112 34 28 37 17 14 16 11 9 7 7 358 341 332 330 327 324 320
147 143 142 138 134 130 127 123 118 116 112 112 108 104 102 96 108 104 108 101 89 114 141 126 128 84 86 12 355 346 2 4 356 352 351 342 332 325 324 319 317 316 316
152 149 147 146 141 138 134 128 120 117 120 116 114 114 111 108 114 117 125 137 58 309 208 110 142 122 154 303 327 332 337 340 334 327 323 318 310 309 309 308 308 308 306
153 151 152 148 141 137 136 134 128 125 130 125 120 118 116 115 114 126 137 140 143 168 159 112 138 91 56 2 322 329 328 328 325 319 318 311 302 297 297 298 296 294 296
162 157 155 151 147 144 142 140 137 134 136 129 134 138 129 128 130 137 156 170 187 196 225 201 151 342 332 312 305 301 293 305 305 307 306 304 300 298 297 298 297 292 288
164 165 163 167 164 161 155 149 141 142 146 153 161 159 168 185 193 208 220 237 235 233 238 272 285 301 307 309 307 302 288 285 294 299 297 296 292 290 291 294 295 294 291
195 195 189 187 180 175 174 167 165 179 189 201 204 219 221 218 218 229 240 244 254 256 265 277 291 299 300 303 307 306 300 287 288 292 288 295 288 288 291 294 295 295 293
198 191 191 188 189 191 190 192 195 220 236 240 257 264 262 256 252 249 254 262 264 266 266 270 282 294 297 305 311 307 310 298 299 293 290 291 288 290 295 296 297 293 291
193 196 196 197 201 209 213 216 222 240 253 264 266 263 269 269 268 264 259 258 265 273 273 273 276 284 292 302 305 303 310 312 311 306 292 287 290 291 291 298 302 293 291
198 194 197 204 212 224 230 239 244 252 260 263 263 267 266 270 270 265 262 263 258 261 271 275 278 282 282 287 287 302 294 301 297 294 293 290 290 285 291 293 303 295 288
198 203 207 215 225 235 238 240 248 252 252 254 259 262 260 260 258 260 260 258 256 249 256 259 258 255 268 274 288 285 290 300 305 312 295 294 288 288 292 295 300 294 287
207 211 219 223 229 236 236 242 246 250 255 259 259 260 263 264 263 263 264 262 265 267 267 268 254 255 263 275 285 285 282 279 272 284 289 284 292 289 291 291 296 292 290
205 215 224 233 242 247 249 255 257 256 259 261 262 259 261 263 262 263 262 263 264 266 268 268 272 279 282 283 277 276 279 280 279 279 280 275 286 282 288 282 287 289 288
221 230 239 245 252 258 259 262 261 260 260 260 264 264 264 264 265 261 259 261 266 266 264 262 266 272 271 270 274 278 269 264 267 269 279 266 275 282 282 286 286 282 278
224 231 242 253 263 269 268 264 261 258 260 264 270 269 261 260 263 258 255 255 258 263 268 271 274 272 270 272 275 276 281 281 277 282 277 262 271 271 277 280 272 273 274
Height
835 838 839 841 842 844 845 846 848 850 851 852 855 856 858 856 859 859 859 861 862 863 865 865 865 864 864 866 868 867 868 870 871 872 873 874 876 877 878 878 879 881 881
836 837 839 841 842 843 845 846 847 849 850 852 854 857 857 858 859 860 862 862 863 863 864 867 867 866 867 869 870 869 869 871 871 873 874 874 874 876 877 878 879 880 881
835 837 838 840 841 842 844 846 849 850 852 854 856 857 859 861 862 864 864 864 865 865 865 869 867 867 869 870 871 870 871 873 872 873 875 876 874 874 875 877 878 879 880
834 837 838 840 842 843 845 847 849 851 853 855 857 859 860 861 864 865 865 866 867 868 867 869 867 867 870 871 871 873 874 873 872 874 874 875 875 875 874 876 877 878 878
835 836 838 840 842 843 845 847 848 851 853 855 857 860 863 863 864 866 867 868 869 870 869 870 868 869 869 872 872 875 876 874 874 874 874 875 876 876 875 875 876 877 878
836 837 839 840 842 843 845 847 849 852 853 856 859 862 864 867 868 869 870 871 870 870 870 870 869 871 870 871 873 874 878 876 876 876 876 876 876 876 877 877 877 877 878
837 838 839 841 843 844 846 848 850 852 854 857 859 864 866 868 870 870 871 872 872 872 873 872 870 870 872 872 874 876 878 878 878 877 879 879 878 877 878 878 878 878 877
837 839 840 841 843 844 846 848 849 851 854 857 857 861 867 871 871 872 873 873 873 873 873 872 872 873 874 874 875 875 876 877 879 879 881 881 879 879 880 879 879 879 878
838 840 841 843 844 846 847 848 849 851 853 856 856 857 864 867 869 871 873 874 874 874 874 874 875 875 875 876 876 876 877 879 880 881 881 880 880 880 880 880 880 880 879
840 841 843 844 845 847 848 849 851 852 853 855 857 858 858 861 866 872 873 874 875 876 876 876 876 876 876 877 878 878 878 879 880 880 881 880 879 880 881 881 881 880 880
841 843 845 846 848 849 849 851 852 853 855 856 856 859 860 862 863 866 872 873 875 877 878 877 877 878 878 878 879 878 878 878 878 879 879 879 880 880 881 880 880 879 879
842 844 846 847 849 850 851 852 853 855 857 857 858 859 860 861 864 865 870 872 872 875 877 878 878 878 878 879 879 879 879 878 878 878 878 879 879 879 878 878 879 879 879
843 844 846 847 849 851 853 854 855 857 858 860 861 861 862 863 865 867 868 872 872 874 876 877 877 879 879 878 879 879 879 879 879 878 878 878 877 877 877 878 878 877 876
843 845 847 848 850 851 853 855 856 858 859 861 862 863 864 865 866 868 870 872 874 874 874 877 878 878 879 879 878 878 878 878 877 878 877 877 876 876 876 876 876 876 875
844 846 847 849 851 853 854 855 857 859 861 862 863 864 865 867 869 870 871 872 873 875 874 875 877 877 878 878 878 877 876 875 875 874 875 875 875 875 874 875 874 874 873
844 846 848 849 851 853 854 856 858 860 861 863 863 864 865 866 868 870 872 873 874 875 875 874 876 876 876 877 877 876 874 873 873 873 872 873 872 872 871 871 871 871 871
844 846 847 849 851 853 855 857 858 860 861 863 864 865 865 866 867 869 871 873 874 875 875 875 874 874 874 874 874 874 872 871 870 870 870 870 870 869 869 868 868 867 866
844 845 847 849 850 853 855 855 858 860 860 863 865 865 864 865 865 866 869 870 871 873 874 873 872 873 872 872 872 871 869 868 867 867 867 867 867 866 865 864 863 862 861
843 845 847 848 851 853 853 855 856 858 860 860 863 864 864 864 864 864 865 867 869 871 871 871 870 871 870 869 868 867 866 865 864 864 863 862 862 862 862 861 860 859 858
843 845 847 849 851 853 853 853 854 856 858 859 861 861 862 862 862 861 862 864 865 868 870 870 869 868 868 866 866 864 863 862 861 860 860 859 859 858 858 858 857 855 854
842 844 846 849 850 852 852 853 852 854 856 858 859 860 858 860 860 860 861 861 863 864 866 867 867 865 864 863 863 862 862 860 858 858 856 855 855 854 854 853 853 851 851
841 843 845 847 849 851 852 853 852 853 855 857 857 858 857 858 858 859 859 858 860 859 859 862 862 861 859 860 860 859 859 858 856 853 852 852 851 850 849 849 847 846 846
841 843 845 847 848 849 850 852 851 851 852 853 854 854 855 854 855 855 855 856 855 856 855 856 856 857 858 857 856 854 853 853 851 850 849 846 846 843 843 842 842 841 840
840 842 843 844 845 846 847 847 848 848 849 848 850 850 850 851 851 852 851 851 851 851 851 851 853 853 853 852 850 849 848 847 845 844 844 841 841 837 836 835 836 836 836
839 840 840 842 842 842 842 843 844 844 845 844 845 845 845 845 845 847 846 846 845 845 845 847 847 847 847 847 845 842 840 840 839 838 839 837 836 833 831 830 830 830 830
836 837 838 838 839 838 839 840 841 841 840 840 840 839 839 840 840 841 840 840 839 838 839 840 840 840 841 840 840 838 837 835 836 832 832 832 831 830 826 824 823 823 822